Hourly Weather Ruda

Today, 21 April, Wednesday

Time Temperature Precipitation Wind Pressure Humidity
00:00 +5°C° 0 mm 3 mps 736 mmHg 92%
01:00 +6°C° 0 mm 2 mps 736 mmHg 93%
02:00 +5°C° 0 mm 2 mps 737 mmHg 93%
03:00 +5°C° 0.1 mm 2 mps 737 mmHg 93%
04:00 +6°C° 0.1 mm 1 mps 737 mmHg 93%
05:00 +6°C° 0.1 mm 1 mps 738 mmHg 93%
06:00 +6°C° 0.3 mm 1 mps 738 mmHg 93%
07:00 +6°C° 0.3 mm 1 mps 739 mmHg 92%
08:00 +6°C° 0.3 mm 1 mps 739 mmHg 92%
09:00 +6°C° 0.1 mm 2 mps 739 mmHg 90%
10:00 +5°C° 0.1 mm 3 mps 740 mmHg 89%
11:00 +5°C° 0.1 mm 4 mps 740 mmHg 88%
12:00 +5°C° 0.1 mm 4 mps 741 mmHg 87%
13:00 +5°C° 0.1 mm 4 mps 741 mmHg 86%
14:00 +5°C° 0.1 mm 5 mps 742 mmHg 85%
15:00 +5°C° 0 mm 4 mps 742 mmHg 84%
16:00 +6°C° 0 mm 4 mps 742 mmHg 83%
17:00 +7°C° 0 mm 3 mps 742 mmHg 82%
18:00 +6°C° 0 mm 2 mps 743 mmHg 85%
19:00 +6°C° 0 mm 1 mps 743 mmHg 88%
20:00 +5°C° 0 mm 1 mps 744 mmHg 91%
21:00 +5°C° 0 mm 1 mps 744 mmHg 90%
22:00 +5°C° 0 mm 2 mps 744 mmHg 89%
23:00 +5°C° 0 mm 2 mps 744 mmHg 89%

Tomorrow, 22 April, Thursday

Time Temperature Precipitation Wind Pressure Humidity
00:00 +4°C° 0 mm 3 mps 744 mmHg 87%
01:00 +4°C° 0 mm 3 mps 744 mmHg 86%
02:00 +4°C° 0 mm 3 mps 744 mmHg 84%
03:00 +4°C° 0 mm 3 mps 744 mmHg 85%
04:00 +4°C° 0 mm 3 mps 745 mmHg 86%
05:00 +4°C° 0 mm 3 mps 745 mmHg 86%
06:00 +6°C° 0 mm 4 mps 745 mmHg 82%
07:00 +7°C° 0 mm 4 mps 745 mmHg 78%
08:00 +9°C° 0 mm 5 mps 746 mmHg 73%
09:00 +10°C° 0 mm 5 mps 746 mmHg 67%
10:00 +13°C° 0 mm 5 mps 746 mmHg 61%
11:00 +15°C° 0 mm 6 mps 746 mmHg 55%
12:00 +15°C° 0.1 mm 6 mps 746 mmHg 53%
13:00 +15°C° 0.1 mm 6 mps 746 mmHg 51%
14:00 +15°C° 0.1 mm 6 mps 746 mmHg 49%
15:00 +15°C° 0 mm 5 mps 745 mmHg 53%
16:00 +14°C° 0 mm 5 mps 745 mmHg 56%
17:00 +14°C° 0 mm 5 mps 745 mmHg 59%
18:00 +13°C° 0 mm 4 mps 745 mmHg 60%
19:00 +12°C° 0 mm 4 mps 746 mmHg 62%
20:00 +12°C° 0 mm 4 mps 746 mmHg 64%
21:00 +11°C° 0 mm 4 mps 746 mmHg 66%
22:00 +11°C° 0 mm 4 mps 746 mmHg 68%
23:00 +10°C° 0 mm 4 mps 746 mmHg 70%

Day after tomorrow, 23 April, Friday

Time Temperature Precipitation Wind Pressure Humidity
00:00 +8°C° 0 mm 4 mps 745 mmHg 73%
01:00 +8°C° 0 mm 4 mps 745 mmHg 75%
02:00 +8°C° 0 mm 4 mps 745 mmHg 78%
03:00 +7°C° 0 mm 4 mps 745 mmHg 80%
04:00 +7°C° 0 mm 4 mps 745 mmHg 82%
05:00 +7°C° 0 mm 4 mps 745 mmHg 84%
06:00 +8°C° 0 mm 5 mps 745 mmHg 79%
07:00 +10°C° 0 mm 5 mps 745 mmHg 74%
08:00 +11°C° 0 mm 6 mps 745 mmHg 69%
09:00 +12°C° 0 mm 7 mps 744 mmHg 65%
10:00 +14°C° 0 mm 7 mps 744 mmHg 62%
11:00 +15°C° 0 mm 7 mps 744 mmHg 58%
12:00 +16°C° 0.6 mm 7 mps 743 mmHg 56%
13:00 +16°C° 0.6 mm 7 mps 743 mmHg 54%
14:00 +16°C° 0.6 mm 7 mps 742 mmHg 52%
15:00 +14°C° 1.4 mm 6 mps 742 mmHg 64%
16:00 +12°C° 1.4 mm 5 mps 742 mmHg 77%
17:00 +10°C° 1.4 mm 4 mps 742 mmHg 89%
18:00 +8°C° 2 mm 4 mps 742 mmHg 90%
19:00 +7°C° 2 mm 5 mps 742 mmHg 91%
20:00 +5°C° 2 mm 5 mps 742 mmHg 92%
21:00 +5°C° 1 mm 5 mps 742 mmHg 93%
22:00 +3°C° 1 mm 5 mps 742 mmHg 94%
23:00 +2°C° 1 mm 5 mps 742 mmHg 95%

24 April, Saturday

Time Temperature Precipitation Wind Pressure Humidity
00:00 +3°C° 0.8 mm 4 mps 742 mmHg 94%
01:00 +3°C° 0.8 mm 4 mps 743 mmHg 92%
02:00 +3°C° 0.8 mm 3 mps 743 mmHg 91%
03:00 +3°C° 0 mm 3 mps 743 mmHg 92%
04:00 +2°C° 0 mm 3 mps 743 mmHg 93%
05:00 +1°C° 0 mm 4 mps 743 mmHg 94%
06:00 +3°C° 0 mm 4 mps 743 mmHg 84%
07:00 +3°C° 0 mm 5 mps 743 mmHg 75%
08:00 +5°C° 0 mm 5 mps 743 mmHg 66%
09:00 +5°C° 0 mm 6 mps 744 mmHg 60%
10:00 +7°C° 0 mm 6 mps 744 mmHg 55%
11:00 +8°C° 0 mm 6 mps 744 mmHg 49%
12:00 +8°C° 0.1 mm 6 mps 744 mmHg 49%
13:00 +8°C° 0.1 mm 6 mps 743 mmHg 49%
14:00 +8°C° 0.1 mm 6 mps 743 mmHg 49%
15:00 +8°C° 0.2 mm 6 mps 743 mmHg 52%
16:00 +7°C° 0.2 mm 5 mps 743 mmHg 56%
17:00 +7°C° 0.2 mm 5 mps 743 mmHg 60%
18:00 +6°C° 0.1 mm 4 mps 744 mmHg 65%
19:00 +5°C° 0.1 mm 3 mps 744 mmHg 69%
20:00 +3°C° 0.1 mm 3 mps 744 mmHg 74%
21:00 +4°C° 0.1 mm 2 mps 744 mmHg 77%
22:00 +4°C° 0.1 mm 2 mps 744 mmHg 80%
23:00 +3°C° 0.1 mm 2 mps 744 mmHg 82%

25 April, Sunday

Time Temperature Precipitation Wind Pressure Humidity
00:00 +3°C° 0 mm 2 mps 744 mmHg 83%
01:00 +1°C° 0 mm 3 mps 744 mmHg 85%
02:00 0°C° 0 mm 3 mps 744 mmHg 86%
03:00 0°C° 0 mm 3 mps 744 mmHg 87%
04:00 0°C° 0 mm 3 mps 744 mmHg 88%
05:00 0°C° 0 mm 3 mps 744 mmHg 89%
06:00 +1°C° 0 mm 3 mps 744 mmHg 82%
07:00 +3°C° 0 mm 4 mps 744 mmHg 75%
08:00 +3°C° 0 mm 5 mps 744 mmHg 68%
09:00 +4°C° 0.2 mm 6 mps 744 mmHg 64%
10:00 +5°C° 0.2 mm 6 mps 744 mmHg 59%
11:00 +6°C° 0.2 mm 7 mps 744 mmHg 55%
12:00 +6°C° 0.3 mm 7 mps 744 mmHg 55%
13:00 +6°C° 0.3 mm 7 mps 744 mmHg 54%
14:00 +6°C° 0.3 mm 8 mps 744 mmHg 53%
15:00 +6°C° 0.1 mm 7 mps 744 mmHg 54%
16:00 +7°C° 0.1 mm 6 mps 744 mmHg 55%
17:00 +7°C° 0.1 mm 5 mps 744 mmHg 56%
18:00 +5°C° 0 mm 4 mps 744 mmHg 61%
19:00 +4°C° 0 mm 3 mps 744 mmHg 66%
20:00 +3°C° 0 mm 3 mps 744 mmHg 71%
21:00 +3°C° 0 mm 2 mps 744 mmHg 73%
22:00 +3°C° 0 mm 2 mps 744 mmHg 75%
23:00 +2°C° 0 mm 2 mps 744 mmHg 77%

26 April, Monday

Time Temperature Precipitation Wind Pressure Humidity
00:00 +2°C° 0 mm 2 mps 744 mmHg 78%
01:00 +2°C° 0 mm 2 mps 744 mmHg 78%
02:00 +2°C° 0 mm 2 mps 744 mmHg 78%
03:00 +1°C° 0 mm 2 mps 743 mmHg 79%
04:00 +1°C° 0 mm 2 mps 743 mmHg 80%
05:00 +1°C° 0 mm 2 mps 743 mmHg 81%
06:00 +2°C° 0 mm 2 mps 743 mmHg 75%
07:00 +3°C° 0 mm 3 mps 743 mmHg 69%
08:00 +4°C° 0 mm 3 mps 743 mmHg 63%
09:00 +5°C° 0.2 mm 3 mps 743 mmHg 58%
10:00 +6°C° 0.2 mm 4 mps 743 mmHg 54%
11:00 +7°C° 0.2 mm 4 mps 743 mmHg 50%
12:00 +7°C° 0.1 mm 5 mps 743 mmHg 48%
13:00 +7°C° 0.1 mm 5 mps 743 mmHg 46%
14:00 +7°C° 0.1 mm 5 mps 743 mmHg 45%
15:00 +7°C° 0.2 mm 5 mps 743 mmHg 49%
16:00 +6°C° 0.2 mm 5 mps 743 mmHg 54%
17:00 +6°C° 0.2 mm 5 mps 743 mmHg 59%
18:00 +4°C° 0 mm 4 mps 743 mmHg 63%
19:00 +3°C° 0 mm 3 mps 743 mmHg 68%
20:00 +3°C° 0 mm 2 mps 743 mmHg 73%
21:00 +2°C° 0 mm 2 mps 743 mmHg 75%
22:00 +2°C° 0 mm 2 mps 743 mmHg 78%
23:00 +1°C° 0 mm 2 mps 743 mmHg 80%
Show more